Regional Weather Roundup
Issued by NWS Wakefield, VA

Home | Current Version | Previous Version | Text Only | Print | Product List | Glossary Off
Versions: 1 2 3 4 5 6 7 8 9 10 11 12 13 14 15 16 17 18 19 20 21 22 23 24 25 26 27 28 29 30 31 32 33 34 35 36 37 38 39 40 41 42 43 44 45 46 47 48 49 50

000
ASUS41 KAKQ 292314
RWRAKQ

REGIONAL WEATHER ROUNDUP
NATIONAL WEATHER SERVICE WAKEFIELD VA
700 PM EDT SUN MAR 29 2015

Note: "fair" indicates few or no clouds below 12,000 feet with no
significant weather and/or obstructions to visibility. * = Denotes
station may not report precipitation (e.g., rain,snow,etc.),
thunder or fog.

VAZ042-051-052>054-056-300000-
NORTHERN VIRGINIA

CITY           SKY/WX    TMP DP  RH WIND       PRES   REMARKS
WASH NATIONAL  PTCLDY    46   6  19 S7        30.23F
DULLES         MOCLDY    44   5  20 S6        30.19F
FORT BELVOIR   CLEAR     44   6  21 S6        30.22F
QUANTICO       CLEAR     46  18  32 S13       30.23F
FREDERICKSBRG* CLEAR     48   6  18 S8        30.22F
STAFFORD*      CLEAR     45  -1  15 S3        30.26F
WARRENTON      CLEAR     46  18  33 SE3       30.20F
CULPEPER*      CLEAR     48   7  18 S5        30.20F
MANASSAS*      CLEAR     45   9  23 S8        30.21F
LEESBURG*      CLEAR     46  12  25 S9        30.19F
WINCHESTER     PTCLDY    46 -13   8 S9        30.15F
FRONT ROYAL*   FAIR      45   5  19 SW6       30.15F
LURAY*         FAIR      46  12  25 SW5       30.16F
$$

VAZ048-049-060>072-079>083-300000-
CENTRAL AND SOUTH CENTRAL VIRGINIA

CITY           SKY/WX    TMP DP  RH WIND       PRES   REMARKS
RICHMOND       MOCLDY    47   5  18 SW7       30.26F
CHESTERFIELD*  NOT AVBL
PETERSBURG*    CLEAR     47   5  17 CALM      30.27F
HANOVER        CLEAR     46   5  18 SW7       30.26F
TAPPAHANNOCK*  CLEAR     46  -9   9 S3        30.26F
QUINTON*       FAIR      46   3  17 S3        30.26F
CHARLOTTSVILLE PTCLDY    46   5  18 S13       30.19F
GORDONSVILLE*  FAIR      45   8  21 S8        30.20F
ORANGE*        CLEAR     46   5  18 S6        30.22F
LOUISA*        CLEAR     46   7  19 S5        30.21F
BUMPASS*       FAIR      46   2  16 SW6       30.23F
FARMVILLE*     PTCLDY    48   7  18 S6        30.23F
CREWE*         FAIR      47   4  17 MISG      30.25F
FORT PICKETT*  FAIR      46   8  20 CALM      30.27S
CHASE CITY*    FAIR      50  14  23 CALM      30.26F
CLARKSVILLE*   FAIR      46  10  23 SW6       30.27F
SOUTH HILL*    CLEAR     46  10  23 SW6       30.33F
LAWRENCEVILLE* FAIR      45  15  30 SW8       30.27F
EMPORIA*       CLEAR     45  12  26 S5        30.31F
$$

VAZ088>098-300000-
SOUTHEAST VIRGINIA

CITY           SKY/WX    TMP DP  RH WIND       PRES   REMARKS
NORFOLK        CLEAR     44   7  21 W7        30.29S
VIRGINIA BEACH PTCLDY    45  11  25 SW6       30.29R
NORFOLK NAVAL  PTCLDY    47  11  23 SW5       30.30S
WEST POINT*    CLEAR     47  -1  14 CALM      30.29F
SALUDA*        FAIR      39  22  49 SE6       30.28S
NEWPORT NEWS   NOT AVBL
LANGLEY AFB    CLEAR     42  20  40 E5        30.28R
FORT EUSTIS    CLEAR     44  15  30 N2        30.27S
WILLIAMSBURG*  CLEAR     48  12  23 SW6       30.29F
HR EXEC AP*    FAIR      46  10  23 W5        30.31R
FRANKLIN*      CLEAR     45  10  24 SW5       30.30S
WAKEFIELD      CLEAR     46   9  22 W5        30.29S
$$

VAZ020-022-025-037-045-300000-
WEST CENTRAL AND SOUTHWEST VIRGINIA

CITY           SKY/WX    TMP DP  RH WIND       PRES   REMARKS
STAUNTON*      PTCLDY    46   9  22 S8        30.16F
WAYNESBORO*    FAIR      44   7  22 S9        30.16F
HOT SPRINGS VA PTCLDY    37   2  22 S6        30.07F
LYNCHBURG      FAIR      46   6  19 S12       30.23F
DANVILLE       CLEAR     49   9  19 VRB7      30.25F
SOUTH BOSTON*  FAIR      47   7  19 CALM      30.26F
MARTINSVILLE   PTCLDY    51   7  17 SW6       30.24F
ROANOKE        PTCLDY    49   9  19 SE15      30.19F
BLACKSBURG     PTCLDY    47   8  20 S8        30.17F
DUBLIN*        PTCLDY    49  11  21 S9        30.16F
MARION*        PTCLDY    49   1  14 W9        30.16F
HILLSVILLE*    PTCLDY    45  13  28 S10G16    30.16F
RICHLANDS*     FAIR      47  -2  13 S5        30.12F
WISE*          MOCLDY    48  -4  11 S14G23    30.11F
ABINGDON*      PTCLDY    53   5  14 W5        30.13F
$$

MDZ021>025-VAZ099-100-300000-
SOUTHERN MARYLAND AND THE DELMARVA PENINSULA

CITY           SKY/WX    TMP DP  RH WIND       PRES   REMARKS
PATUXENT RIVER CLEAR     41   9  26 W6        30.25F
BAY BRIDGE APT   N/A     41  18  38 S7        30.23F
LEONARDTOWN    CLEAR     43   5  21 SW3       30.26F
DOVER          CLEAR     42  11  28 W8        30.19F
GEORGETOWN     CLEAR     41   9  26 VRB7      30.26S
EASTON         PTCLDY    43  16  33 CALM      30.27F
CAMBRIDGE      CLEAR     43  10  26 CALM      30.25F
SALISBURY      CLEAR     40   9  28 W9        30.26F
OCEAN CITY     CLEAR     37  22  54 S3        30.27S
WALLOPS ISLAND CLEAR     39  11  31 NW6       30.28S
ACCOMACK*      CLEAR     37   9  30 CALM      30.28F
$$

NCZ012>017-030>032-300000-
NORTH CENTRAL AND EASTERN NORTH CAROLINA

CITY           SKY/WX    TMP DP  RH WIND       PRES   REMARKS
ROANOKE RAPIDS FAIR      46  12  25 W3        30.29F
RALEIGH        PTCLDY    50  11  20 SW8       30.29F
ELIZABETH CITY CLEAR     44  13  28 SW3       30.31S
AHOSKIE*       CLEAR     43  18  37 CALM      30.31F
EDENTON*       CLEAR     46  14  27 CALM      30.32S
CURRITUCK*     CLEAR     41  22  45 E5        30.31S
KILL DEVIL HLS CLEAR     37  21  50 CALM      30.31S
MANTEO         CLEAR     38  21  50 E5        30.32S
CAPE HATTERAS  CLEAR     40  21  46 E5        30.34R
TARBORO*       FAIR      49  12  23 SW5       30.32F
GOLDSBORO      CLEAR     49  16  27 SW7       30.30F
WASHINGTON     CLEAR     46  14  28 NW3       30.34S
GREENVILLE     CLEAR     46  16  29 SW7       30.34R
NEW BERN       CLEAR     47  15  27 W8        30.35R
WILMINGTON     CLEAR     48  24  39 S8        30.34S
$$

VAZ048-300000-
ELSEWHERE

CITY           SKY/WX    TMP DP  RH WIND       PRES   REMARKS
HARRISBURG PA  PTCLDY    43  10  26 S8        30.14F
BALTIMORE      PTCLDY    42   7  23 SW5       30.19F
ANNAPOLIS      CLEAR     40  19  43 S8        30.23F
ANDREWS AFB    CLEAR     42  10  27 S6        30.21F
PHILADELPHIA   CLEAR     43   8  23 SW10      30.21F
HENDERSON NC   CLEAR     47   5  17 SW6       30.28F
GREENSBORO     MOCLDY    49   8  19 S8        30.24F
ROCKY MOUNT    CLEAR     47  16  29 S5        30.31F
$$

VAZ100-300000-
MARINE

STATION/POSITION TIME  TEMP    WIND        PRES    WAVE   SWELL
                       AIR SEA DIR/SP/G            HT/PER HT/PER
                 (UTC) (F)     (DEG/KT/KT) (MB)    (FT/S) (FT/S)
BRANDYWINE LGT   2200   40 40  320/  5/  8 1024.5S
CAPE MAY NJ      2200   41 43  260/  1/  5 1024.1R
LEWES DE         2200   42 42  310/ 10/ 12 1024.3R
15NM E FENWICK I 2250   38 40              1024.5R   4/ 9
OCEAN-CITY-INLET 2200   38 40  170/  6/  8 1024.7R
WACHAPREAGUE VA  2200   43 45  290/  2/  4 1025.6R
THOMAS POINT MD  2300                        N/A
COVE POINT MD    2200   36     160/  7/  8 1024.9S
SOLOMONS ISLAND  2200      44                N/A
BISHOPS HEAD MD  2200   41 46  250/  3/  3 1024.9S
PINEY POINT MD   2200          360/  4/  5   N/A
CAMBRIDGE MD     2200   41 42  340/  6/  7 1025.0R
LEWISETTA VA     2200   41 44              1025.0F
RAPPAHANNOCK LGT 2200           40/  7/  8 1026.1F
STINGRAY PT      2300   39 45  140/  6/  8   N/A     1
YORK RVR RNG VA  2200   39     140/ 10/ 12 1025.1F
YORKTOWN VA      2200          250/  6/  8 1025.2F
DOMINION TERM VA 2200   44     320/  4/  5 1025.6F
KIPTOPEKE VA     2200      48  170/  1/  4   N/A
CHES BAY BRIDGE  2200   39 44   50/  5/  6 1025.3F
CAPE HENRY VA    2200   40      30/  4/  5 1024.4F
CHESAPEAKE LGHT  2200   37     340/  5/  5 1026.7F
WILLOUBY STN VA  2200   45     280/ 10/ 12 1025.9F
S CRANEY ISL VA  2200          340/  4/  5 1025.6F
CAPE HENRY BUOY  2228      40                N/A     3/ 7
1ST LANDING BUOY 2300   40      80/  4/  6 1025.4R   1/ 4
OFFSHORE WE BUOY 2211      40                N/A     4/ 6   3/ 6
64NM E OF VA BCH 2250   39 54  320/ 16/ 19 1025.7R   5/ 5   3/ 8
DUCK PIER NC     2200   40 43   90/  5/  6 1025.8F
44056 DUCK FRF   2211      43                N/A     3/ 6
OREGON INLET NC  2200   38 45   20/  7/  9 1026.7F
HATTERAS NC      2200           10/  8/ 10 1027.0F
CAPE LOOKOUT NC  2300   45     240/  3/  5 1027.6R
$$


USA.gov is the U.S. government's official web portal to all federal, state and local government web resources and services.